JZA685 CYYC-CYZF

Flight info

Callsign JZA685
Flight time N/A
Altitude 38000
Route DCT AVROM Q933 MAPUX DCT LISVA DCT GOREK DCT
Aircraft CRJ9/M-SDFGIRWYZ/S

Departure

Time 2026-05-01 12:27
Airport Calgary International Airport (CYYC)

Arrival

Time N/A
Airport Yellowknife International Airport (CYZF)
Time Latitude Longitude Altitude Speed Heading
2026-05-01 11:04 51.12952 -114.01094 3564 ft 0 kts 310°
2026-05-01 12:05 51.12938 -114.01049 3560 ft 4 kts 273°
2026-05-01 12:05 51.12945 -114.01012 3559 ft 4 kts 231°
2026-05-01 12:06 51.12960 -114.00995 3561 ft 0 kts 205°
2026-05-01 12:13 51.12958 -114.00996 3564 ft 1 kts 205°
2026-05-01 12:14 51.12937 -114.01010 3564 ft 5 kts 202°
2026-05-01 12:14 51.12898 -114.01041 3564 ft 7 kts 213°
2026-05-01 12:14 51.12853 -114.01093 3560 ft 9 kts 208°
2026-05-01 12:14 51.12805 -114.01070 3561 ft 8 kts 135°
2026-05-01 12:15 51.12768 -114.00996 3564 ft 9 kts 122°
2026-05-01 12:15 51.12752 -114.00886 3562 ft 12 kts 96°
2026-05-01 12:15 51.12744 -114.00759 3564 ft 0 kts 96°
2026-05-01 12:16 51.12743 -114.00738 3564 ft 4 kts 92°
2026-05-01 12:16 51.12738 -114.00666 3562 ft 8 kts 121°
2026-05-01 12:16 51.12680 -114.00641 3564 ft 11 kts 178°
2026-05-01 12:16 51.12614 -114.00580 3564 ft 13 kts 95°
2026-05-01 12:17 51.12614 -114.00418 3564 ft 17 kts 88°
2026-05-01 12:17 51.12617 -114.00201 3564 ft 22 kts 91°
2026-05-01 12:17 51.12617 -113.99945 3564 ft 23 kts 89°
2026-05-01 12:17 51.12617 -113.99743 3564 ft 17 kts 90°
2026-05-01 12:18 51.12616 -113.99558 3564 ft 17 kts 90°
2026-05-01 12:18 51.12599 -113.99458 3562 ft 8 kts 142°
2026-05-01 12:18 51.12537 -113.99445 3564 ft 11 kts 180°
2026-05-01 12:18 51.12450 -113.99446 3564 ft 14 kts 180°
2026-05-01 12:19 51.12342 -113.99445 3562 ft 16 kts 179°
2026-05-01 12:19 51.12234 -113.99444 3564 ft 16 kts 180°
2026-05-01 12:19 51.12125 -113.99445 3564 ft 16 kts 180°
2026-05-01 12:19 51.12017 -113.99446 3564 ft 15 kts 180°
2026-05-01 12:20 51.11911 -113.99446 3564 ft 15 kts 180°
2026-05-01 12:20 51.11801 -113.99446 3564 ft 17 kts 180°
2026-05-01 12:20 51.11681 -113.99446 3564 ft 18 kts 180°
2026-05-01 12:20 51.11553 -113.99446 3564 ft 19 kts 180°
2026-05-01 12:21 51.11419 -113.99446 3562 ft 19 kts 180°
2026-05-01 12:21 51.11286 -113.99447 3568 ft 19 kts 180°
2026-05-01 12:21 51.11172 -113.99447 3566 ft 11 kts 180°
2026-05-01 12:21 51.11127 -113.99407 3569 ft 6 kts 103°
2026-05-01 12:22 51.11122 -113.99331 3568 ft 7 kts 95°
2026-05-01 12:22 51.11120 -113.99278 3573 ft 7 kts 88°
2026-05-01 12:22 51.11121 -113.99247 3573 ft 0 kts 90°
2026-05-01 12:25 51.11121 -113.99228 3573 ft 4 kts 90°
2026-05-01 12:25 51.11121 -113.99057 3573 ft 6 kts 73°
2026-05-01 12:25 51.11147 -113.99037 3571 ft 4 kts
2026-05-01 12:26 51.11206 -113.99035 3572 ft 21 kts
2026-05-01 12:26 51.12423 -113.99035 3564 ft 149 kts
2026-05-01 12:26 51.13171 -113.99047 3689 ft 169 kts 359°
2026-05-01 12:27 51.14353 -113.99036 4513 ft 170 kts 360°
2026-05-01 12:27 51.17103 -113.98465 6234 ft 187 kts 13°
2026-05-01 12:28 51.19213 -113.97291 7313 ft 207 kts 18°
2026-05-01 12:28 51.20639 -113.96443 7834 ft 230 kts 17°
2026-05-01 12:28 51.23711 -113.95012 9925 ft 221 kts 13°
2026-05-01 12:29 51.25255 -113.94333 10408 ft 244 kts 13°
2026-05-01 12:29 51.26958 -113.93529 10858 ft 258 kts 15°
2026-05-01 12:29 51.30225 -113.91698 12407 ft 264 kts 18°
2026-05-01 12:30 51.33840 -113.89444 13637 ft 282 kts 19°
2026-05-01 12:30 51.35668 -113.88245 14141 ft 296 kts 20°
2026-05-01 12:30 51.37648 -113.86929 14403 ft 317 kts 21°
2026-05-01 12:31 51.39610 -113.85537 15113 ft 320 kts 21°
2026-05-01 12:31 51.41676 -113.84042 15609 ft 331 kts 21°
2026-05-01 12:31 51.43780 -113.82550 16401 ft 331 kts 20°
2026-05-01 12:31 51.45909 -113.81104 17111 ft 333 kts 19°
2026-05-01 12:32 51.48082 -113.79746 17811 ft 334 kts 14°
2026-05-01 12:32 51.52570 -113.77874 19066 ft 337 kts
2026-05-01 12:32 51.54873 -113.77094 19636 ft 340 kts
2026-05-01 12:33 51.57203 -113.76298 20156 ft 344 kts
2026-05-01 12:33 51.59552 -113.75453 20723 ft 347 kts
2026-05-01 12:33 51.61856 -113.74601 20906 ft 362 kts
2026-05-01 12:33 51.64379 -113.73637 20926 ft 381 kts
2026-05-01 12:34 51.66944 -113.72664 21002 ft 398 kts
2026-05-01 12:34 51.69600 -113.71657 21393 ft 403 kts
2026-05-01 12:34 51.72341 -113.70622 21896 ft 406 kts
2026-05-01 12:34 51.75061 -113.69594 22380 ft 409 kts
2026-05-01 12:35 51.76358 -113.69103 22602 ft 410 kts
2026-05-01 12:35 51.77942 -113.68505 22868 ft 412 kts
2026-05-01 12:35 51.80741 -113.67438 23338 ft 414 kts
2026-05-01 12:35 51.83386 -113.66436 23753 ft 417 kts
2026-05-01 12:36 51.86210 -113.65369 24070 ft 421 kts
2026-05-01 12:36 51.89076 -113.64278 24447 ft 424 kts
2026-05-01 12:36 51.91955 -113.63185 24821 ft 426 kts
2026-05-01 12:36 51.94854 -113.62081 25186 ft 428 kts
2026-05-01 12:37 51.97759 -113.60968 25567 ft 429 kts
2026-05-01 12:37 52.00664 -113.59858 25941 ft 430 kts
2026-05-01 12:37 52.03461 -113.58781 26252 ft 432 kts
2026-05-01 12:37 52.06393 -113.57659 26575 ft 434 kts
2026-05-01 12:38 52.09347 -113.56528 26896 ft 436 kts
2026-05-01 12:38 52.12220 -113.55421 27193 ft 439 kts
2026-05-01 12:38 52.15127 -113.54302 27465 ft 441 kts
2026-05-01 12:38 52.18129 -113.53146 27764 ft 443 kts
2026-05-01 12:39 52.21145 -113.51984 28060 ft 445 kts
2026-05-01 12:39 52.24129 -113.50832 28332 ft 447 kts
2026-05-01 12:39 52.27163 -113.49653 28612 ft 448 kts
2026-05-01 12:39 52.30210 -113.48473 28882 ft 450 kts
2026-05-01 12:40 52.33260 -113.47292 29143 ft 452 kts
2026-05-01 12:40 52.36240 -113.46131 29395 ft 453 kts
2026-05-01 12:40 52.37643 -113.45587 29506 ft 454 kts
2026-05-01 12:41 52.40575 -113.44446 29751 ft 456 kts
2026-05-01 12:41 52.43663 -113.43237 29986 ft 457 kts
2026-05-01 12:41 52.46604 -113.42093 30191 ft 459 kts
2026-05-01 12:41 52.49724 -113.40870 30383 ft 460 kts
2026-05-01 12:42 52.52844 -113.39652 30570 ft 461 kts
2026-05-01 12:42 52.55967 -113.38427 30748 ft 462 kts
2026-05-01 12:42 52.59101 -113.37191 30929 ft 463 kts
2026-05-01 12:42 52.62247 -113.35955 31095 ft 464 kts
2026-05-01 12:43 52.65391 -113.34718 31268 ft 465 kts
2026-05-01 12:43 52.68555 -113.33472 31444 ft 466 kts
2026-05-01 12:43 52.71719 -113.32234 31579 ft 468 kts
2026-05-01 12:43 52.74878 -113.31518 31742 ft 460 kts 356°
2026-05-01 12:44 52.78058 -113.31674 31984 ft 455 kts 351°
2026-05-01 12:44 52.81205 -113.32181 32179 ft 453 kts 348°
2026-05-01 12:44 52.87287 -113.33761 32601 ft 450 kts 346°
2026-05-01 12:45 52.93476 -113.35326 33017 ft 449 kts 347°
2026-05-01 12:45 52.96569 -113.36061 33239 ft 448 kts 347°
2026-05-01 12:45 52.99658 -113.36799 33417 ft 448 kts 347°
2026-05-01 12:46 53.02708 -113.37525 33584 ft 448 kts 347°
2026-05-01 12:46 53.05791 -113.38263 33756 ft 448 kts 347°
2026-05-01 12:46 53.08867 -113.39000 33920 ft 447 kts 347°
2026-05-01 12:46 53.11944 -113.39736 34082 ft 447 kts 346°
2026-05-01 12:47 53.15017 -113.40474 34222 ft 446 kts 346°
2026-05-01 12:47 53.18087 -113.41209 34366 ft 446 kts 347°
2026-05-01 12:47 53.21157 -113.41950 34525 ft 446 kts 346°
2026-05-01 12:47 53.24230 -113.42692 34668 ft 445 kts 346°
2026-05-01 12:48 53.27310 -113.43430 34803 ft 445 kts 346°
2026-05-01 12:48 53.30268 -113.44147 34915 ft 446 kts 346°
2026-05-01 12:48 53.33334 -113.44888 35046 ft 446 kts 346°
2026-05-01 12:48 53.36401 -113.45633 35188 ft 445 kts 346°
2026-05-01 12:49 53.39466 -113.46375 35329 ft 445 kts 346°
2026-05-01 12:49 53.42533 -113.47123 35461 ft 445 kts 346°
2026-05-01 12:49 53.45599 -113.47867 35572 ft 445 kts 346°
2026-05-01 12:49 53.48627 -113.48597 35672 ft 446 kts 346°
2026-05-01 12:50 53.51694 -113.49354 35816 ft 445 kts 346°
2026-05-01 12:50 53.54760 -113.50104 35951 ft 445 kts 346°
2026-05-01 12:50 53.60893 -113.51608 36167 ft 445 kts 346°
2026-05-01 12:51 53.63958 -113.52360 36304 ft 445 kts 346°
2026-05-01 12:51 53.67029 -113.53119 36436 ft 444 kts 346°
2026-05-01 12:51 53.73086 -113.54210 36705 ft 447 kts 352°
2026-05-01 12:52 53.76199 -113.54340 36827 ft 449 kts 353°
2026-05-01 12:52 53.82436 -113.54539 37050 ft 447 kts 352°
2026-05-01 12:52 53.85465 -113.54737 37153 ft 447 kts 352°
2026-05-01 12:53 53.91684 -113.55149 37360 ft 447 kts 352°
2026-05-01 12:53 53.94792 -113.55356 37490 ft 447 kts 352°
2026-05-01 12:53 53.97902 -113.55557 37625 ft 446 kts 352°
2026-05-01 12:54 54.00969 -113.55761 37693 ft 447 kts 352°
2026-05-01 12:54 54.07192 -113.56172 37855 ft 448 kts 352°
2026-05-01 12:54 54.10240 -113.56374 37936 ft 448 kts 352°
2026-05-01 12:55 54.19551 -113.56999 37988 ft 453 kts 352°
2026-05-01 12:56 54.25884 -113.57421 38008 ft 456 kts 352°
2026-05-01 12:56 54.32219 -113.57854 37998 ft 459 kts 352°
2026-05-01 12:57 54.38635 -113.58280 37999 ft 462 kts 352°
2026-05-01 12:57 54.48305 -113.58935 37996 ft 465 kts 352°
2026-05-01 12:58 54.54664 -113.59366 37999 ft 467 kts 352°
2026-05-01 12:59 54.64378 -113.60032 37990 ft 467 kts 352°
2026-05-01 12:59 54.74006 -113.60691 37983 ft 456 kts 352°
2026-05-01 13:00 54.83439 -113.61343 37984 ft 448 kts 352°
2026-05-01 13:01 54.92723 -113.61987 37983 ft 443 kts 352°
2026-05-01 13:02 55.01853 -113.62617 37995 ft 443 kts 352°
2026-05-01 13:07 55.69477 -113.67406 37983 ft 450 kts 352°
2026-05-01 13:08 55.75693 -113.67859 37981 ft 450 kts 352°
2026-05-01 13:08 55.81845 -113.68301 37982 ft 449 kts 352°
2026-05-01 13:09 55.88098 -113.68755 37988 ft 449 kts 352°
2026-05-01 13:09 55.94348 -113.69211 37985 ft 449 kts 353°
2026-05-01 13:10 56.00444 -113.69658 37983 ft 449 kts 353°
2026-05-01 13:10 56.06690 -113.70116 37983 ft 449 kts 352°
2026-05-01 13:11 56.12937 -113.70575 37983 ft 449 kts 353°
2026-05-01 13:11 56.19076 -113.71031 38001 ft 449 kts 353°
2026-05-01 13:12 56.25329 -113.71491 37981 ft 449 kts 353°
2026-05-01 13:12 56.31542 -113.71958 37976 ft 449 kts 353°
2026-05-01 13:13 56.37671 -113.72409 37977 ft 449 kts 353°
2026-05-01 13:13 56.43831 -113.72870 37972 ft 449 kts 353°
2026-05-01 13:14 56.50078 -113.73343 37962 ft 449 kts 353°
2026-05-01 13:14 56.55957 -113.73782 37972 ft 449 kts 353°
2026-05-01 13:15 56.61054 -113.74171 37967 ft 449 kts 353°
2026-05-01 13:15 56.66046 -113.74544 37970 ft 449 kts 353°
2026-05-01 13:16 56.69947 -113.74844 37969 ft 449 kts 353°
2026-05-01 13:16 56.74668 -113.75200 37984 ft 449 kts 353°
2026-05-01 13:17 56.84960 -113.75988 37973 ft 449 kts 353°
2026-05-01 13:18 56.93764 -113.76661 37984 ft 449 kts 353°
2026-05-01 13:18 56.98623 -113.77044 37986 ft 449 kts 353°
2026-05-01 13:19 57.03434 -113.77414 37985 ft 450 kts 353°
2026-05-01 13:20 57.10648 -113.77975 37986 ft 450 kts 352°
2026-05-01 13:20 57.16382 -113.78415 37983 ft 451 kts 352°
2026-05-01 13:21 57.24981 -113.79082 37988 ft 451 kts 352°
2026-05-01 13:21 57.29801 -113.79469 37985 ft 451 kts 352°
2026-05-01 13:22 57.35599 -113.79919 37990 ft 451 kts 353°
2026-05-01 13:22 57.41630 -113.80395 37985 ft 452 kts 353°
2026-05-01 13:23 57.47703 -113.80871 37985 ft 452 kts 353°
2026-05-01 13:23 57.53870 -113.81362 37982 ft 452 kts 353°
2026-05-01 13:24 57.60154 -113.81859 37986 ft 452 kts 353°
2026-05-01 13:25 57.69482 -113.82611 37987 ft 453 kts 353°
2026-05-01 13:25 57.75779 -113.83115 37985 ft 453 kts 353°
2026-05-01 13:26 57.82083 -113.83621 37982 ft 453 kts 353°
2026-05-01 13:26 57.88229 -113.84116 37982 ft 453 kts 353°
2026-05-01 13:27 57.94540 -113.84634 37985 ft 454 kts 353°
2026-05-01 13:27 58.04014 -113.85401 37959 ft 454 kts 353°
2026-05-01 13:28 58.13365 -113.86167 37971 ft 455 kts 353°
2026-05-01 13:29 58.25872 -113.87199 37959 ft 455 kts 353°
2026-05-01 13:31 58.43974 -113.88703 37959 ft 456 kts 353°
2026-05-01 13:32 58.56770 -113.89779 37946 ft 457 kts 353°
2026-05-01 13:33 58.72519 -113.91109 37937 ft 457 kts 353°
2026-05-01 13:34 58.85059 -113.92176 37934 ft 457 kts 353°
2026-05-01 13:35 58.94562 -113.92991 37930 ft 458 kts 353°
2026-05-01 13:36 59.03939 -113.93804 37933 ft 457 kts 353°
2026-05-01 13:36 59.13447 -113.94625 37947 ft 455 kts 353°
2026-05-01 13:37 59.19638 -113.95163 37931 ft 455 kts 353°
2026-05-01 13:37 59.25959 -113.95717 37934 ft 454 kts 353°
2026-05-01 13:38 59.35274 -113.96538 37940 ft 452 kts 353°
2026-05-01 13:39 59.41568 -113.97092 37945 ft 452 kts 353°
2026-05-01 13:39 59.47699 -113.97642 37942 ft 451 kts 353°
2026-05-01 13:40 59.52712 -113.98081 37946 ft 451 kts 353°
2026-05-01 13:40 59.57886 -113.98553 37945 ft 450 kts 353°
2026-05-01 13:41 59.62612 -113.98976 37944 ft 449 kts 353°
2026-05-01 13:41 59.67821 -113.99444 37943 ft 449 kts 353°
2026-05-01 13:42 59.73937 -113.99985 37954 ft 449 kts 353°
2026-05-01 13:42 59.80179 -114.00550 37943 ft 449 kts 353°
2026-05-01 13:43 59.86380 -114.01113 37953 ft 448 kts 353°
2026-05-01 13:43 59.92475 -114.01666 37952 ft 448 kts 353°
2026-05-01 13:44 59.98704 -114.02232 37958 ft 447 kts 353°
2026-05-01 13:44 60.04855 -114.02796 37959 ft 447 kts 353°
2026-05-01 13:45 60.11007 -114.03368 37954 ft 447 kts 353°
2026-05-01 13:45 60.14118 -114.03652 37950 ft 447 kts 353°
2026-05-01 13:47 60.21025 -114.04292 37950 ft 447 kts 353°
2026-05-01 13:47 60.27092 -114.04861 37951 ft 447 kts 353°
2026-05-01 13:48 60.33306 -114.05433 37951 ft 447 kts 353°
2026-05-01 13:48 60.39523 -114.06021 37946 ft 447 kts 353°
2026-05-01 13:49 60.45552 -114.06584 37941 ft 447 kts 353°
2026-05-01 13:49 60.51779 -114.07173 37947 ft 447 kts 353°
2026-05-01 13:50 60.57861 -114.07752 37949 ft 447 kts 353°
2026-05-01 13:50 60.63897 -114.08321 37953 ft 440 kts 353°
2026-05-01 13:50 60.66915 -114.08605 37605 ft 439 kts 352°
2026-05-01 13:51 60.69927 -114.08899 37206 ft 439 kts 352°
2026-05-01 13:51 60.72985 -114.09185 36819 ft 438 kts 352°
2026-05-01 13:51 60.75891 -114.09474 36435 ft 438 kts 352°
2026-05-01 13:51 60.78944 -114.09784 35931 ft 440 kts 352°
2026-05-01 13:52 60.82007 -114.10061 35446 ft 442 kts 352°
2026-05-01 13:52 60.85088 -114.10309 34975 ft 443 kts 352°
2026-05-01 13:52 60.88171 -114.10549 34462 ft 444 kts 352°
2026-05-01 13:52 60.91274 -114.10801 33879 ft 447 kts 352°
2026-05-01 13:53 60.94271 -114.11055 33226 ft 449 kts 352°
2026-05-01 13:53 61.00508 -114.11570 31946 ft 447 kts 351°
2026-05-01 13:53 61.03614 -114.11833 31303 ft 445 kts 351°
2026-05-01 13:54 61.06668 -114.12099 30690 ft 444 kts 351°
2026-05-01 13:54 61.09657 -114.12360 30092 ft 443 kts 351°
2026-05-01 13:54 61.12737 -114.12625 29387 ft 442 kts 351°
2026-05-01 13:54 61.15801 -114.12885 28686 ft 439 kts 351°
2026-05-01 13:55 61.18829 -114.13133 28003 ft 431 kts 351°
2026-05-01 13:55 61.21795 -114.13378 27342 ft 423 kts 351°
2026-05-01 13:55 61.24682 -114.13620 26684 ft 417 kts 351°
2026-05-01 13:55 61.27455 -114.13859 26059 ft 411 kts 351°
2026-05-01 13:56 61.30295 -114.14094 25471 ft 406 kts 350°
2026-05-01 13:56 61.33102 -114.14306 24856 ft 401 kts 350°
2026-05-01 13:56 61.35867 -114.14512 24241 ft 392 kts 350°
2026-05-01 13:56 61.38564 -114.14732 23739 ft 382 kts 349°
2026-05-01 13:57 61.41185 -114.14953 23230 ft 372 kts 349°
2026-05-01 13:57 61.42787 -114.15095 22872 ft 366 kts 349°
2026-05-01 13:57 61.46145 -114.15383 22130 ft 356 kts 349°
2026-05-01 13:57 61.48599 -114.15595 21588 ft 349 kts 349°
2026-05-01 13:58 61.50978 -114.15799 21066 ft 343 kts 349°
2026-05-01 13:58 61.53341 -114.16001 20550 ft 338 kts 349°
2026-05-01 13:58 61.55379 -114.16182 20105 ft 334 kts 349°
2026-05-01 13:58 61.57402 -114.16354 19665 ft 331 kts 348°
2026-05-01 13:59 61.59256 -114.16516 19267 ft 328 kts 349°
2026-05-01 13:59 61.61211 -114.16683 18874 ft 324 kts 348°
2026-05-01 13:59 61.63019 -114.16834 18495 ft 322 kts 348°
2026-05-01 13:59 61.64715 -114.16991 18120 ft 319 kts 348°
2026-05-01 14:00 61.66384 -114.17135 17703 ft 317 kts 348°
2026-05-01 14:00 61.68075 -114.17282 17281 ft 315 kts 348°
2026-05-01 14:00 61.69763 -114.17436 16865 ft 313 kts 348°
2026-05-01 14:00 61.71449 -114.17598 16451 ft 312 kts 349°
2026-05-01 14:01 61.73117 -114.17752 16047 ft 311 kts 349°
2026-05-01 14:01 61.74796 -114.17902 15644 ft 309 kts 349°
2026-05-01 14:01 61.76407 -114.18043 15292 ft 308 kts 349°
2026-05-01 14:01 61.78066 -114.18202 14897 ft 308 kts 350°
2026-05-01 14:02 61.79743 -114.18366 14507 ft 308 kts 350°
2026-05-01 14:02 61.81397 -114.18523 14126 ft 308 kts 351°
2026-05-01 14:02 61.83066 -114.18676 13749 ft 308 kts 351°
2026-05-01 14:02 61.84738 -114.18827 13319 ft 308 kts 351°
2026-05-01 14:03 61.85851 -114.18923 13029 ft 308 kts 351°
2026-05-01 14:03 61.88064 -114.19108 12468 ft 307 kts 351°
2026-05-01 14:03 61.89168 -114.19203 12195 ft 306 kts 351°
2026-05-01 14:03 61.91760 -114.19437 11565 ft 305 kts 351°
2026-05-01 14:04 61.93114 -114.19563 11254 ft 303 kts 352°
2026-05-01 14:04 61.95220 -114.19761 10761 ft 301 kts 352°
2026-05-01 14:04 61.97264 -114.19934 10461 ft 293 kts 352°
2026-05-01 14:04 61.99272 -114.20108 10194 ft 285 kts 352°
2026-05-01 14:05 62.01224 -114.20284 9936 ft 277 kts 352°
2026-05-01 14:05 62.03148 -114.20456 9537 ft 276 kts 352°
2026-05-01 14:05 62.05051 -114.20623 9181 ft 272 kts 352°
2026-05-01 14:05 62.06924 -114.20796 8822 ft 268 kts 352°
2026-05-01 14:06 62.08770 -114.20959 8471 ft 262 kts 351°
2026-05-01 14:06 62.10519 -114.21114 8131 ft 258 kts 351°
2026-05-01 14:06 62.12306 -114.21286 7721 ft 256 kts 351°
2026-05-01 14:06 62.14090 -114.21433 7319 ft 256 kts 352°
2026-05-01 14:07 62.15859 -114.21519 7043 ft 251 kts 352°
2026-05-01 14:07 62.17565 -114.21701 6782 ft 245 kts 350°
2026-05-01 14:07 62.19249 -114.21916 6532 ft 240 kts 350°
2026-05-01 14:08 62.22523 -114.22326 5996 ft 231 kts 350°
2026-05-01 14:08 62.24112 -114.22485 5781 ft 226 kts 350°
2026-05-01 14:08 62.25601 -114.22623 5573 ft 220 kts 351°
2026-05-01 14:08 62.27115 -114.22763 5352 ft 215 kts 351°
2026-05-01 14:09 62.28595 -114.22905 5171 ft 209 kts 351°
2026-05-01 14:09 62.30013 -114.23049 5087 ft 199 kts 349°
2026-05-01 14:09 62.31333 -114.23233 5038 ft 188 kts 348°
2026-05-01 14:09 62.32643 -114.23468 4751 ft 189 kts 348°
2026-05-01 14:10 62.33955 -114.23695 4406 ft 189 kts 348°
2026-05-01 14:10 62.35271 -114.23930 4079 ft 189 kts 348°
2026-05-01 14:10 62.36581 -114.24184 3741 ft 189 kts 348°
2026-05-01 14:10 62.37881 -114.24442 3408 ft 186 kts 349°
2026-05-01 14:11 62.39153 -114.24672 3066 ft 180 kts 349°
2026-05-01 14:11 62.41265 -114.26432 2530 ft 153 kts 324°
2026-05-01 14:11 62.42105 -114.27578 2317 ft 146 kts 324°
2026-05-01 14:12 62.42926 -114.28741 2133 ft 136 kts 323°
2026-05-01 14:12 62.43582 -114.29957 1970 ft 119 kts 301°
2026-05-01 14:12 62.43901 -114.31523 1695 ft 108 kts 297°
2026-05-01 14:12 62.44241 -114.32945 1294 ft 108 kts 298°
2026-05-01 14:13 62.44618 -114.34421 962 ft 112 kts 296°
2026-05-01 14:13 62.45024 -114.36008 984 ft 134 kts 297°
2026-05-01 14:13 62.45504 -114.37846 1720 ft 144 kts 298°
2026-05-01 14:13 62.46024 -114.39930 2334 ft 172 kts 300°
2026-05-01 14:14 62.46629 -114.42258 3120 ft 185 kts 302°
2026-05-01 14:14 62.47188 -114.44748 3737 ft 200 kts 293°
2026-05-01 14:14 62.47715 -114.47646 4336 ft 214 kts 292°
2026-05-01 14:14 62.48269 -114.50728 4109 ft 218 kts 291°
2026-05-01 14:15 62.48773 -114.53725 4025 ft 205 kts 291°
2026-05-01 14:15 62.49228 -114.56545 3989 ft 192 kts 290°
2026-05-01 14:15 62.49512 -114.59226 3947 ft 184 kts 269°
2026-05-01 14:15 62.48860 -114.61556 3950 ft 193 kts 218°
2026-05-01 14:16 62.47606 -114.62607 3990 ft 192 kts 206°
2026-05-01 14:16 62.46330 -114.63521 4001 ft 197 kts 206°
2026-05-01 14:16 62.44989 -114.64454 4028 ft 208 kts 205°
2026-05-01 14:16 62.43579 -114.65415 4051 ft 217 kts 205°
2026-05-01 14:17 62.42106 -114.66418 4059 ft 225 kts 204°
2026-05-01 14:17 62.40631 -114.67328 4047 ft 227 kts 195°
2026-05-01 14:17 62.39064 -114.66699 4050 ft 237 kts 150°
2026-05-01 14:17 62.37967 -114.64105 3989 ft 238 kts 114°
2026-05-01 14:18 62.37244 -114.60887 3775 ft 240 kts 115°
2026-05-01 14:18 62.36497 -114.57705 3547 ft 242 kts 115°
2026-05-01 14:18 62.35737 -114.54461 3308 ft 242 kts 115°
2026-05-01 14:18 62.35224 -114.52277 3164 ft 239 kts 114°
2026-05-01 14:19 62.34266 -114.48270 2917 ft 222 kts 115°
2026-05-01 14:19 62.33574 -114.45380 2670 ft 213 kts 115°
2026-05-01 14:19 62.32924 -114.42647 2417 ft 208 kts 115°
2026-05-01 14:19 62.32280 -114.39904 2178 ft 202 kts 115°
2026-05-01 14:20 62.31670 -114.37282 2084 ft 189 kts 115°
2026-05-01 14:20 62.30604 -114.32660 1919 ft 157 kts 115°
2026-05-01 14:20 62.30306 -114.30399 1565 ft 171 kts 78°
2026-05-01 14:21 62.30888 -114.28355 1757 ft 151 kts 21°
2026-05-01 14:21 62.31882 -114.27753 2083 ft 155 kts
2026-05-01 14:21 62.32847 -114.26186 2139 ft 197 kts 51°
2026-05-01 14:22 62.34652 -114.22502 2162 ft 171 kts 10°
2026-05-01 14:22 62.35657 -114.21066 2098 ft 173 kts 28°
2026-05-01 14:22 62.36686 -114.20368 2037 ft 147 kts 338°
2026-05-01 14:22 62.37533 -114.21357 2052 ft 137 kts 325°
2026-05-01 14:23 62.38357 -114.22357 2049 ft 137 kts 327°
2026-05-01 14:23 62.39204 -114.23342 2048 ft 139 kts 327°
2026-05-01 14:23 62.40055 -114.24212 2040 ft 126 kts 332°
2026-05-01 14:23 62.40827 -114.24780 1993 ft 108 kts 334°
2026-05-01 14:24 62.41534 -114.25326 1999 ft 115 kts 330°
2026-05-01 14:24 62.42264 -114.26240 2080 ft 133 kts 319°
2026-05-01 14:24 62.42685 -114.27909 2075 ft 128 kts 293°
2026-05-01 14:24 62.43121 -114.29551 2088 ft 123 kts 301°
2026-05-01 14:25 62.43545 -114.31101 2095 ft 120 kts 301°
2026-05-01 14:25 62.43966 -114.32640 2081 ft 119 kts 302°
2026-05-01 14:25 62.44395 -114.34209 2116 ft 121 kts 302°
2026-05-01 14:25 62.44851 -114.35757 2305 ft 121 kts 305°
2026-05-01 14:26 62.45369 -114.37218 2650 ft 123 kts 311°
2026-05-01 14:26 62.46707 -114.40158 2611 ft 171 kts 297°
2026-05-01 14:26 62.46716 -114.42705 2246 ft 173 kts 258°
2026-05-01 14:27 62.46126 -114.44820 2076 ft 173 kts 230°
2026-05-01 14:27 62.45004 -114.45951 2041 ft 183 kts 208°
2026-05-01 14:27 62.43787 -114.46878 2039 ft 187 kts 206°
2026-05-01 14:28 62.41288 -114.48635 2036 ft 192 kts 205°
2026-05-01 14:28 62.40009 -114.49288 2022 ft 197 kts 189°
2026-05-01 14:28 62.38688 -114.48363 1999 ft 207 kts 147°
2026-05-01 14:28 62.37798 -114.45956 2030 ft 207 kts 118°
2026-05-01 14:29 62.37086 -114.43228 2059 ft 213 kts 116°
2026-05-01 14:29 62.36391 -114.40401 2063 ft 218 kts 115°
2026-05-01 14:30 62.34368 -114.31787 2059 ft 209 kts 113°
2026-05-01 14:30 62.34130 -114.28850 2017 ft 198 kts 76°
2026-05-01 14:30 62.34576 -114.26205 2039 ft 181 kts 58°
2026-05-01 14:31 62.35596 -114.21659 2000 ft 153 kts 39°
2026-05-01 14:31 62.36411 -114.20536 1962 ft 131 kts 13°
2026-05-01 14:31 62.37203 -114.19637 1984 ft 130 kts 15°
2026-05-01 14:31 62.38031 -114.18704 2017 ft 139 kts 15°
2026-05-01 14:32 62.38936 -114.17729 2045 ft 151 kts 15°
2026-05-01 14:32 62.39904 -114.16720 2049 ft 158 kts 15°
2026-05-01 14:32 62.40913 -114.15676 2076 ft 161 kts 14°
2026-05-01 14:32 62.41930 -114.15463 2020 ft 144 kts 333°
2026-05-01 14:33 62.42515 -114.16956 2028 ft 131 kts 289°
2026-05-01 14:33 62.42774 -114.18815 2027 ft 130 kts 284°
2026-05-01 14:33 62.42677 -114.20847 2043 ft 141 kts 266°
2026-05-01 14:33 62.42514 -114.22968 2066 ft 145 kts 266°
2026-05-01 14:34 62.42548 -114.25043 2020 ft 136 kts 294°
2026-05-01 14:34 62.42941 -114.26856 2057 ft 132 kts 295°
2026-05-01 14:34 62.43306 -114.28651 2063 ft 130 kts 295°
2026-05-01 14:34 62.43667 -114.30459 2066 ft 130 kts 296°
2026-05-01 14:35 62.44025 -114.32225 1786 ft 129 kts 296°
2026-05-01 14:35 62.44430 -114.33927 1557 ft 126 kts 301°
2026-05-01 14:35 62.44884 -114.35578 1354 ft 126 kts 298°
2026-05-01 14:35 62.45305 -114.37224 1118 ft 123 kts 294°
2026-05-01 14:36 62.45661 -114.38895 1037 ft 124 kts 294°
2026-05-01 14:36 62.46033 -114.40539 920 ft 122 kts 295°
2026-05-01 14:36 62.46392 -114.42172 786 ft 119 kts 295°
2026-05-01 14:36 62.46719 -114.43625 684 ft 93 kts 297°
2026-05-01 14:37 62.47025 -114.44954 684 ft 115 kts 295°
2026-05-01 14:37 62.47390 -114.46565 1124 ft 122 kts 295°
2026-05-01 14:37 62.47842 -114.48509 1427 ft 164 kts 296°
2026-05-01 14:37 62.48398 -114.50979 1756 ft 199 kts 296°
2026-05-01 14:38 62.48993 -114.53758 1884 ft 209 kts 291°
2026-05-01 14:38 62.49071 -114.56825 1927 ft 209 kts 256°
2026-05-01 14:38 62.48203 -114.59355 1958 ft 218 kts 220°
2026-05-01 14:38 62.46826 -114.60774 2015 ft 219 kts 209°
2026-05-01 14:39 62.45413 -114.61973 2019 ft 217 kts 207°
2026-05-01 14:39 62.44478 -114.62722 2018 ft 216 kts 206°